AirNav   Air Wisconsin Up To $57,000 Bonus
 
 970 users online  

3MO1 Police Dept Helicopter Maint Facility Heliport
Kansas City, Missouri, USA

GOING TO KANSAS CITY?


FAA INFORMATION EFFECTIVE 05 DECEMBER 2019

Location

FAA Identifier: 3MO1
Lat/Long: 39-02-45.0190N 094-29-50.8320W
39-02.750317N 094-29.847200W
39.0458386,-94.4974533
(estimated)
Elevation: 855 ft. / 261 m (estimated)
Variation: 05E (1985)
From city: HELIPORT 7 SE KANSAS CITY MUNI.
Time zone: UTC -6 (UTC -5 during Daylight Saving Time)
Zip code: 64129

Heliport Operations

Heliport use: Private use. Permission required prior to landing
Activation date: 05/1972
Control tower: no
ARTCC: KANSAS CITY CENTER
FSS: COLUMBIA FLIGHT SERVICE STATION
Attendance: CONTINUOUS
Wind indicator: yes
Segmented circle: no

Heliport Communications

WX ASOS at MKC (6 nm NW): PHONE 816-329-2843
WX ASOS at LXT (8 nm SE): 124.175 (816-347-9807)
WX ASOS at OJC (16 nm SW): PHONE 913-780-6969
WX ASOS at MCI (18 nm NW): 128.375 (816-329-2808)
WX AWOS-3 at GPH (19 nm NE): 120.275 (816-407-3399)

Nearby radio navigation aids

VOR radial/distance  VOR name  Freq  Var
ANXr253/17.4NAPOLEON VORTAC114.0007E
MCIr137/18.2KANSAS CITY VORTAC113.2505E

Heliport Services

Airframe service: MAJOR
Powerplant service: MINOR

Runway Information

Helipad H1

Dimensions: 25 x 25 ft. / 8 x 8 m
Surface: concrete
Latitude: 39-02.750333N
Longitude: 094-29.847167W
Elevation: 855.0 ft.
Traffic pattern: leftleft

Helipad H2

Dimensions: 25 x 25 ft. / 8 x 8 m
Surface: concrete
Traffic pattern: leftleft

Helipad H3

Dimensions: 25 x 25 ft. / 8 x 8 m
Surface: concrete
Traffic pattern: leftleft

Heliport Ownership and Management from official FAA records

Ownership: Publicly-owned
Owner: BOARD OF POLICE COMMISSIONERS
1125 LOCUST
KANSAS CITY, MO 64129
Phone 816-234-5000
Manager: CAPT. SHAWN NICHOLS
4601 EASTERN
KANSAS CITY, MO 64129
Phone 816-929-2700

Heliport Operational Statistics

Aircraft based on the field: 3
Helicopters: 3
    

Additional Remarks

FOR CD CTC KANSAS CITY APCH AT 816-329-2710.

Instrument Procedures

There are no published instrument procedures at 3MO1.

Some nearby airports with instrument procedures:

KMKC - Charles B Wheeler Downtown Airport (6 nm NW)
KLXT - Lee's Summit Municipal Airport (8 nm SE)
3GV - East Kansas City Airport (13 nm E)
KOJC - Johnson County Executive Airport (16 nm SW)
KMCI - Kansas City International Airport (18 nm NW)
KGPH - Midwest National Air Center Airport (19 nm NE)
 
Loc | Ops | Rwys | IFR | FBO | Links
Com | Nav | Svcs | Stats | Notes

Kansas City Aviation Department
 
Area around 3MO1 (Police Dept Helicopter Maint Facility Heliport)
 
Road maps at: MapQuest Bing Google
 
Aerial photo
No photo
 
Sectional chart

 
Airport distance calculator
Flying to Police Dept Helicopter Maint Facility Heliport? Find the distance to fly.

From to 3MO1

Sunrise and sunset
Times for 08-Dec-2019
 Local
(UTC-6)
 Zulu
(UTC)
Morning civil twilight06:5612:56
Sunrise07:2513:25
Sunset16:5422:54
Evening civil twilight17:2423:24

Current date and time
Zulu (UTC)  09-Dec-2019 04:15:50
Local (UTC-6)  08-Dec-2019 22:15:50
 
METAR
KMKC 
6nm NW 
090354Z 20003KT 9SM OVC036 09/07 A2964 RMK AO2 SLP038 T00940067
KLXT 
8nm SE 
090353Z AUTO 19006KT 10SM OVC019 11/07 A2966 RMK AO2 SLP044 T01060067
KOJC 
16nm SW 
090353Z AUTO 19004KT 9SM OVC034 09/09 A2965 RMK AO2 SLP040 T00890089
KMCI 
19nm NW 
090353Z 19004KT 7SM FEW015 BKN026 OVC032 08/07 A2964 RMK AO2 SLP038 T00830067
KGPH 
19nm NE 
090355Z AUTO 00000KT 10SM OVC019 08/06 A2965 RMK AO2
TAF
KMKC 
6nm NW 
081850Z 0819/0918 21012KT P6SM OVC015 FM090000 18006KT P6SM BKN035 BKN120 FM090300 17005KT P6SM BKN015 FM090800 32008KT 5SM BR OVC008 FM091400 32015G25KT P6SM OVC020
KMCI 
19nm NW 
081850Z 0819/0918 20012KT P6SM OVC015 FM090000 18006KT P6SM BKN035 BKN120 FM090300 17005KT P6SM BKN015 FM090800 32008KT 5SM BR OVC008 FM091400 32015G25KT P6SM OVC020
NOTAMs
Click for the latest NOTAMs
NOTAMs are issued by the DoD/FAA and will open in a separate window not controlled by AirNav.

 

 
 

Would you like to see your business listed on this page?

 If your business provides an interesting product or service to pilots, flight crews, aircraft, or users of the Police Dept Helicopter Maint Facility Heliport, you should consider listing it here.  To start the listing process, click on the button below
 
Add a business
 

Other Pages about Police Dept Helicopter Maint Facility Heliport

Update a link
 
Copyright © AirNav, LLC. All rights reserved. Privacy Policy  Contact